| time (UTC) | temp F | wind direction | speed MPH | gust MPH | rain 1hr in | rain 24hr in | rain mn in | humidity % | barometer mb |
| 20260902081553 | 69 | 236 | 0.0 | 1.0 | 0.00 | 0.13 | 0.00 | 95 | 1015.9 |
| 20260902080104 | 69 | 236 | 0.0 | 1.0 | 0.00 | 0.13 | 0.00 | 95 | 1015.8 |
| 20260902074552 | 69 | 236 | 0.0 | 2.0 | 0.00 | 0.13 | 0.00 | 95 | 1015.8 |
| 20260902073055 | 70 | 236 | 0.0 | 1.0 | 0.00 | 0.13 | 0.00 | 95 | 1015.8 |
| 20260902071555 | 70 | 236 | 0.0 | 2.0 | 0.00 | 0.13 | 0.00 | 95 | 1015.9 |
| 20260902070054 | 70 | 235 | 0.0 | 0.0 | 0.00 | 0.13 | 0.00 | 95 | 1015.8 |
| 20260902064601 | 70 | 235 | 0.0 | 1.0 | 0.00 | 0.13 | 0.00 | 95 | 1015.7 |
| 20260902063049 | 70 | 235 | 0.0 | 1.0 | 0.00 | 0.13 | 0.00 | 95 | 1015.8 |
| 20260902061556 | 70 | 248 | 0.0 | 2.0 | 0.00 | 0.13 | 0.00 | 95 | 1016.1 |
| 20260902060048 | 70 | 238 | 0.0 | 3.0 | 0.00 | 0.13 | 0.00 | 96 | 1016.3 |
| 20260902054550 | 70 | 111 | 0.0 | 2.0 | 0.00 | 0.13 | 0.00 | 95 | 1016.3 |
| 20260902053044 | 69 | 111 | 0.0 | 1.0 | 0.00 | 0.13 | 0.00 | 95 | 1016.4 |
| 20260902051541 | 68 | 111 | 0.0 | 0.0 | 0.00 | 0.13 | 0.00 | 95 | 1016.3 |
| 20260902050041 | 68 | 111 | 0.0 | 0.0 | 0.00 | 0.13 | 0.00 | 95 | 1016.2 |
| 20260902044538 | 68 | 111 | 0.0 | 0.0 | 0.00 | 0.13 | 0.00 | 95 | 1016.1 |
| 20260902043038 | 68 | 111 | 0.0 | 0.0 | 0.00 | 0.13 | 0.00 | 94 | 1016.2 |
| 20260902041536 | 68 | 111 | 0.0 | 0.0 | 0.00 | 0.13 | 0.00 | 94 | 1016.0 |
| 20260902040034 | 68 | 111 | 0.0 | 0.0 | 0.00 | 0.13 | 0.00 | 94 | 1015.7 |
| 20260902034532 | 68 | 111 | 0.0 | 0.0 | 0.00 | 0.13 | 0.13 | 94 | 1015.7 |
| 20260902033039 | 68 | 111 | 0.0 | 0.0 | 0.00 | 0.13 | 0.13 | 94 | 1015.5 |
| 20260902031534 | 68 | 111 | 0.0 | 0.0 | 0.00 | 0.13 | 0.13 | 94 | 1015.4 |
| 20260902030031 | 67 | 111 | 0.0 | 0.0 | 0.00 | 0.13 | 0.13 | 93 | 1015.4 |
| 20260902024530 | 68 | 111 | 0.0 | 0.0 | 0.00 | 0.13 | 0.13 | 94 | 1014.8 |
| 20260902023030 | 68 | 111 | 0.0 | 0.0 | 0.00 | 0.13 | 0.13 | 94 | 1014.4 |
| 20260902021535 | 68 | 111 | 0.0 | 0.0 | 0.00 | 0.13 | 0.13 | 93 | 1014.6 |
| 20260902020029 | 68 | 111 | 0.0 | 0.0 | 0.00 | 0.13 | 0.13 | 93 | 1014.4 |
| 20260902014536 | 69 | 111 | 0.0 | 0.0 | 0.00 | 0.13 | 0.13 | 93 | 1014.3 |
| 20260902013030 | 69 | 111 | 0.0 | 0.0 | 0.00 | 0.13 | 0.13 | 93 | 1014.2 |
| 20260902011535 | 69 | 111 | 0.0 | 0.0 | 0.00 | 0.13 | 0.13 | 93 | 1014.5 |
| 20260902010042 | 69 | 111 | 0.0 | 0.0 | 0.00 | 0.13 | 0.13 | 93 | 1014.9 |
| 20260902004533 | 69 | 111 | 0.0 | 0.0 | 0.00 | 0.13 | 0.13 | 93 | 1014.7 |
| 20260902003026 | 70 | 111 | 0.0 | 0.0 | 0.01 | 0.13 | 0.13 | 93 | 1014.2 |
| 20260902001526 | 70 | 111 | 0.0 | 0.0 | 0.01 | 0.13 | 0.13 | 93 | 1013.4 |
| 20260902000043 | 70 | 111 | 0.0 | 0.0 | 0.01 | 0.13 | 0.13 | 93 | 1013.0 |
| 20260901234551 | 70 | 111 | 0.0 | 0.0 | 0.01 | 0.13 | 0.13 | 93 | 1012.8 |
| 20260901233024 | 70 | 111 | 0.0 | 0.0 | 0.00 | 0.12 | 0.12 | 93 | 1013.1 |
| 20260901231538 | 70 | 111 | 0.0 | 0.0 | 0.00 | 0.12 | 0.12 | 93 | 1013.3 |
| 20260901230026 | 70 | 111 | 0.0 | 0.0 | 0.00 | 0.12 | 0.12 | 93 | 1013.1 |
| 20260901224530 | 71 | 111 | 0.0 | 0.0 | 0.00 | 0.12 | 0.12 | 92 | 1013.3 |
| 20260901223034 | 71 | 111 | 0.0 | 1.0 | 0.01 | 0.12 | 0.12 | 92 | 1013.4 |
| 20260901221528 | 71 | 111 | 0.0 | 2.0 | 0.07 | 0.12 | 0.12 | 92 | 1013.5 |
| 20260901220023 | 71 | 113 | 0.0 | 2.0 | 0.08 | 0.12 | 0.12 | 90 | 1013.3 |
| 20260901214522 | 72 | 113 | 1.0 | 2.0 | 0.11 | 0.12 | 0.12 | 88 | 1012.8 |
| 20260901213021 | 75 | 213 | 2.0 | 4.0 | 0.09 | 0.10 | 0.10 | 87 | 1013.3 |
| 20260901211520 | 77 | 193 | 0.0 | 2.0 | 0.04 | 0.05 | 0.05 | 87 | 1013.0 |
| 20260901210020 | 79 | 193 | 1.0 | 2.0 | 0.03 | 0.04 | 0.04 | 82 | 1013.0 |
| 20260901204519 | 81 | 132 | 0.0 | 3.0 | 0.00 | 0.01 | 0.01 | 75 | 1012.4 |
| 20260901203022 | 82 | 244 | 1.0 | 3.0 | 0.00 | 0.01 | 0.01 | 75 | 1012.7 |
| 20260901201515 | 81 | 301 | 1.0 | 3.0 | 0.00 | 0.01 | 0.01 | 75 | 1012.6 |
| 20260901200029 | 81 | 40 | 0.0 | 2.0 | 0.00 | 0.01 | 0.01 | 77 | 1012.7 |
| 20260901194512 | 81 | 98 | 0.0 | 2.0 | 0.00 | 0.02 | 0.01 | 76 | 1012.8 |
| 20260901193009 | 82 | 169 | 1.0 | 6.0 | 0.00 | 0.02 | 0.01 | 74 | 1013.0 |
| 20260901191512 | 82 | 217 | 1.0 | 4.0 | 0.00 | 0.02 | 0.01 | 74 | 1013.1 |
| 20260901190017 | 81 | 137 | 1.0 | 4.0 | 0.00 | 0.02 | 0.01 | 76 | 1013.1 |
| 20260901184504 | 81 | 262 | 0.0 | 4.0 | 0.00 | 0.04 | 0.01 | 78 | 1013.3 |
| 20260901183008 | 80 | 279 | 1.0 | 3.0 | 0.00 | 0.04 | 0.01 | 79 | 1013.4 |
| 20260901181604 | 79 | 199 | 0.0 | 2.0 | 0.00 | 0.04 | 0.01 | 81 | 1013.4 |
| 20260901180100 | 78 | 302 | 0.0 | 2.0 | 0.00 | 0.04 | 0.01 | 80 | 1013.5 |
| 20260901174559 | 78 | 244 | 0.0 | 2.0 | 0.00 | 0.05 | 0.01 | 80 | 1013.4 |
| 20260901173109 | 79 | 247 | 0.0 | 3.0 | 0.00 | 0.05 | 0.01 | 79 | 1013.4 |
| 20260901171558 | 79 | 125 | 2.0 | 7.0 | 0.00 | 0.05 | 0.01 | 79 | 1013.4 |
| 20260901170058 | 78 | 215 | 0.0 | 3.0 | 0.00 | 0.05 | 0.01 | 81 | 1013.6 |
| 20260901164605 | 78 | 269 | 1.0 | 3.0 | 0.00 | 0.05 | 0.01 | 81 | 1013.8 |
| 20260901163048 | 78 | 144 | 2.0 | 5.0 | 0.00 | 0.05 | 0.01 | 82 | 1014.0 |
| 20260901161544 | 76 | 67 | 1.0 | 3.0 | 0.00 | 0.05 | 0.01 | 86 | 1014.2 |
| 20260901160044 | 74 | 236 | 0.0 | 2.0 | 0.00 | 0.05 | 0.01 | 89 | 1014.2 |
| 20260901154540 | 74 | 236 | 0.0 | 2.0 | 0.00 | 0.05 | 0.01 | 90 | 1014.3 |
| 20260901153038 | 73 | 236 | 0.0 | 2.0 | 0.00 | 0.05 | 0.01 | 91 | 1014.4 |
| 20260901151529 | 73 | 225 | 1.0 | 3.0 | 0.00 | 0.05 | 0.01 | 92 | 1014.5 |
| 20260901150025 | 72 | 198 | 0.0 | 2.0 | 0.01 | 0.05 | 0.01 | 92 | 1014.4 |
| 20260901144533 | 72 | 100 | 0.0 | 1.0 | 0.01 | 0.05 | 0.01 | 92 | 1014.4 |
| 20260901143023 | 72 | 100 | 0.0 | 1.0 | 0.01 | 0.05 | 0.01 | 92 | 1014.4 |
| 20260901141513 | 72 | 266 | 0.0 | 2.0 | 0.01 | 0.05 | 0.01 | 91 | 1014.6 |
| 20260901140012 | 72 | 286 | 0.0 | 3.0 | 0.00 | 0.04 | 0.00 | 91 | 1014.7 |
| 20260901134508 | 72 | 306 | 0.0 | 2.0 | 0.00 | 0.04 | 0.00 | 93 | 1014.6 |
| 20260901133006 | 71 | 104 | 0.0 | 3.0 | 0.00 | 0.04 | 0.00 | 94 | 1014.6 |
| 20260901131506 | 70 | 151 | 1.0 | 2.0 | 0.00 | 0.04 | 0.00 | 95 | 1014.6 |
| 20260901130100 | 70 | 15 | 0.0 | 3.0 | 0.00 | 0.04 | 0.00 | 95 | 1014.6 |
| 20260901124559 | 69 | 70 | 0.0 | 2.0 | 0.00 | 0.04 | 0.00 | 95 | 1014.7 |
| 20260901123056 | 69 | 165 | 0.0 | 1.0 | 0.00 | 0.04 | 0.00 | 95 | 1014.8 |
| 20260901121609 | 68 | 165 | 0.0 | 1.0 | 0.00 | 0.04 | 0.00 | 95 | 1014.9 |
| 20260901120104 | 68 | 165 | 0.0 | 1.0 | 0.00 | 0.04 | 0.00 | 95 | 1014.9 |
| 20260901114559 | 67 | 165 | 0.0 | 0.0 | 0.00 | 0.04 | 0.00 | 95 | 1014.9 |
| 20260901113051 | 67 | 165 | 0.0 | 0.0 | 0.00 | 0.04 | 0.00 | 94 | 1014.7 |
| 20260901111553 | 67 | 165 | 0.0 | 0.0 | 0.00 | 0.04 | 0.00 | 95 | 1014.6 |
| 20260901110050 | 66 | 165 | 0.0 | 2.0 | 0.00 | 0.04 | 0.00 | 94 | 1014.9 |
| 20260901104547 | 67 | 165 | 0.0 | 1.0 | 0.00 | 0.04 | 0.00 | 94 | 1014.6 |
| 20260901103046 | 67 | 165 | 0.0 | 0.0 | 0.00 | 0.04 | 0.00 | 94 | 1014.9 |
| 20260901101551 | 67 | 165 | 0.0 | 0.0 | 0.00 | 0.04 | 0.00 | 94 | 1014.9 |
| 20260901100044 | 66 | 165 | 0.0 | 1.0 | 0.00 | 0.04 | 0.00 | 94 | 1015.0 |
| 20260901094543 | 66 | 165 | 0.0 | 1.0 | 0.00 | 0.04 | 0.00 | 94 | 1015.1 |
| 20260901093109 | 66 | 165 | 0.0 | 0.0 | 0.00 | 0.04 | 0.00 | 93 | 1015.1 |
| 20260901091558 | 66 | 165 | 0.0 | 0.0 | 0.00 | 0.04 | 0.00 | 93 | 1015.0 |
| 20260901090042 | 66 | 165 | 0.0 | 0.0 | 0.00 | 0.04 | 0.00 | 93 | 1015.0 |
| 20260901084540 | 66 | 165 | 0.0 | 0.0 | 0.00 | 0.04 | 0.00 | 94 | 1015.1 |